Weather in Kenkhi

Russia / Chechen Republic     42°38′20″N   45°56′53″E
temp.,
°C
wind,
m/s
gust,
m/s
humid.,
%
clouds,
%
prec.,
mm/h
press.,
hPa
HPBL,
m
29 july, thu
thu2900:00+9se239796 0.0 1020122
03:00+8se3397100 0.0 101964
06:00+9se339457 0.0 1019116
09:00+15ese236211 0.0 1017703
12:00+18ene225238 0.1 10151301
15:00+18n115586 0.1 10151254
18:00+16nw227550 0.1 1015100
21:00+11sse118514 0.1 101714
30 july, fri
fri3000:00+11sse22856 0.0 101622
03:00+10sse22874 0.0 101624
06:00+12sse22815 0.0 101652
09:00+18e12594 0.0 1014862
12:00+21ne225337 0.3 10121507
15:00+19nnw226476 2.4 1012904
18:00+17nnw227692 2.6 1013106
21:00+12ssw118774 4.3 101517
31 july, sat
sat3100:00+12sse22876 0.3 101424
03:00+11sse22874 0.3 101423
06:00+13sse12835 0.1 101437
09:00+19nne11604 0.9 1013785
12:00+20nne326215 1.7 10121198
15:00+19n2368100 4.6 1012938
18:00+16nw1181100 2.9 101436
21:00+14ssw118539 3.6 101614
1 august, sun
sun100:00+12se22895 0.6 101520
03:00+12sse228657 0.6 101518
06:00+13sse228240 0.1 101533
09:00+19nne116448 0.7 1014708
12:00+19n226797 4.8 1014770
15:00+17ene1278100 7.9 1015235
18:00+17s227973 0.6 101564
21:00+13sse228392 0.6 101625
2 august, mon
mon200:00+13sse228093 0.0 101625
03:00+13sse228070 0.0 101524
06:00+14sse227824 0.0 101537
09:00+20ese225678 0.5 1014751
12:00+22ese114997 0.8 10131685
15:00+18w127591 2.3 1014175
18:00+15sse238646 2.0 101569
21:00+14sse22815 2.1 101621